Location: Laverne
(36.7100°N, 99.8930°W)
Time: 05:15:31
(UTC-06:00)

GPS 2-04 Rocket1 - Pass Details

Date: 19 October 2017
Orbit: 421 x 564 km, 35.6° (Epoch: 23 November)

Event Time Altitude Azimuth Distance (km) Brightness Sun altitude
Exits shadow 06:41:10 26° 249° (WSW) 987 3.6 -14.7°
Maximum altitude 06:42:44 39° 199° (SSW) 728 3.3 -14.4°
Drops below altitude 10° 06:46:08 10° 130° (SE) 1,593 6.0 -13.7°
Sets 06:48:20 0° 122° (ESE) 2,440 7.3 -13.3°
